ATLAS 5 CENTAUR DEB, 44683

Orbit data source: Space-Track

ATLAS 5 CENTAUR DEB, 44683 is space debris in HEO originally from a launch on Wed, 17 Oct 2018 UTC launched from the Air Force Eastern Test Range (AFETR). Debris objects in space refer to the collection of defunct objects orbiting the Earth. Examples of debris include non-operational satellites, rocket bodies, and fragments generated from explosions, collisions, or faulty payload assembly.

Loading next visibility...
Identifier
44683, 2018-079AV
Orbit
HEO
Country
Flag of USUS
Related business
Flag of USUnited Launch Alliance/Lockheed Martin (US)
Manufacturer
ULA Decatur
Mission
Spacecraft
Bus & Motor
Unknown
Mass
Unknown
Launch date (UTC)
2018-10-17 (7 years ago)
Launch vehicle
Unknown
Launch site
Air Force Eastern Test Range (AFETR)
Object type
Payload
Rocket body
Debris
Shape & HBR
Unknown shape, 1.1 m
Radar Cross Section
RCS unknown

Expand to show TLE details & history
Last TLE update: 2 days ago

TLE from 2 days ago
0 ATLAS 5 CENTAUR DEB
1 44683U 18079AV  25348.64846822 -.00000074  00000-0  00000-0 0  9994
2 44683  13.1278  47.1620 4700444 293.2961  24.7287  1.83238371 47944
Epoch: 2025-12-14T15:33Z
TLE epoch observation values (Epoch: 2025-12-14T15:33:47.654Z)
Latitude
Longitude
90.09304°
Altitude
12,180.536 km
Speed
5.369 km/s
True Right ascension
03h 08m 23s
True Declination
0° 00' 00"
Sunlit
Object was in daylight at epoch
Visualization orbit readout
Latitude
Unknown
Longitude
Unknown
Altitude
Unknown
Speed
Unknown
Apparent Right ascension
Unknown
Apparent Declination
Unknown
Sunlit
N/A
Visualization observer readout
Local Sidereal Time
06:08:22
Azimuth
Unknown
Elevation
Unknown
Doppler factor
Unknown
Orbital elements
Apogee altitude
35,093.756 km
Perigee altitude
8,572.61 km
Semi-major axis
28,211.32 km
Eccentricity
0.47004
Inclination
13.1278°
RAAN
47.162°
Arg. of periapsis
293.2961°
True anomaly
66.73097°
Mean anomaly
24.7287°
Eccentric anomaly
43.14617°
Mean motion
0.45804 °/min
Orbital period
785.95 mins
BSTAR
0
Loading maneuver chart data...
Computing Atmospheric mass density...

Documentation

Showing up to 5 results
|